Temperature
13 13 14 14 12 11 12 13 13 14 14 15 16 16 15 15 16 17 17 17 17 17 16 16 16 16 16 16 16 16 16 16 17 17 17 17 16 16 16 16 16 16 16 16 16 16 16 16 16
13 13 13 14 11 12 12 13 13 14 16 16 16 16 15 15 16 16 16 16 16 16 16 16 16 16 16 16 16 16 16 16 16 16 16 16 16 16 16 16 16 16 16 16 16 16 16 16 16
12 13 13 11 11 12 14 14 13 14 16 16 15 15 15 15 16 16 16 16 16 16 16 16 15 16 16 16 16 16 16 16 16 16 16 16 16 16 16 16 16 16 16 16 16 15 15 15 15
12 13 12 10 12 12 13 14 14 14 15 15 15 14 15 15 15 16 16 16 15 15 15 15 15 15 15 15 16 16 16 16 16 16 16 16 15 15 15 15 15 15 15 15 15 15 15 15 15
12 13 11 11 11 12 12 13 14 14 14 15 14 13 14 15 15 15 15 15 15 15 15 15 15 15 15 15 15 16 15 15 15 15 15 15 15 15 15 15 15 15 15 15 15 15 15 15 15
12 10 10 11 12 12 12 14 15 14 14 14 14 13 14 15 15 15 15 15 15 15 15 15 15 15 15 15 15 15 15 15 15 15 15 15 15 15 15 15 15 15 15 15 15 15 15 15 15
11 9 10 11 12 13 13 15 14 13 13 14 15 13 14 15 15 15 14 14 14 14 15 14 14 14 15 15 15 15 15 15 15 15 15 15 15 15 15 15 15 15 15 15 15 15 14 14 14
12 9 10 10 11 13 14 15 15 15 14 15 15 13 14 15 14 14 14 14 14 14 14 14 14 14 14 14 15 15 15 15 15 15 15 15 15 15 15 15 15 15 14 15 14 14 14 14 14
12 9 10 11 12 13 14 14 14 15 14 14 14 15 15 15 14 14 14 13 13 14 14 14 14 14 14 14 14 14 14 14 14 14 14 14 14 14 14 14 14 14 14 14 14 14 14 14 14
11 10 10 12 12 13 13 13 14 14 13 13 14 14 15 14 14 14 14 14 14 14 14 14 14 14 14 14 14 14 14 14 14 14 14 14 14 14 14 14 14 14 14 14 14 14 14 13 13
10 10 11 12 13 13 13 13 14 13 12 13 14 15 14 14 14 14 14 14 14 13 13 13 13 13 13 13 13 13 14 14 13 13 13 14 14 14 14 14 14 14 14 13 13 13 13 13 13
9 10 11 12 13 13 13 13 13 13 14 15 16 15 14 14 13 14 14 13 13 13 13 13 13 13 13 13 13 13 13 13 13 13 13 13 13 13 13 13 13 13 13 13 13 13 13 13 13
9 10 11 12 12 12 13 12 12 13 14 15 15 14 13 13 13 13 13 13 13 13 13 13 13 13 13 13 13 13 13 13 13 13 13 13 13 13 13 13 13 13 13 13 12 12 12 12 12
10 10 11 11 12 12 12 12 12 12 14 14 14 13 13 13 13 13 13 13 13 13 13 13 12 12 12 12 12 12 12 12 12 12 12 12 12 12 12 12 12 12 12 12 12 12 12 12 12
10 10 10 10 11 11 11 11 11 12 13 13 13 13 13 13 13 13 13 13 13 13 13 12 12 12 12 12 12 12 12 12 12 12 12 12 12 12 12 12 12 12 11 11 11 11 11 11 11
9 9 9 10 10 11 11 10 11 12 12 11 11 12 12 12 12 13 13 13 13 13 12 12 12 12 12 12 12 11 11 11 11 11 11 11 11 11 11 11 11 11 11 11 11 11 11 11 11
8 8 8 9 10 10 10 10 10 11 11 10 11 11 12 12 12 12 13 13 13 13 12 12 12 12 11 11 11 11 11 11 11 11 11 11 11 11 10 10 10 10 10 10 10 10 10 10 10
7 7 8 8 9 9 9 9 9 10 10 9 10 10 11 11 12 12 12 12 12 12 12 12 12 11 11 11 11 11 10 10 10 10 10 10 10 10 10 10 10 10 10 10 10 10 10 10 10
7 7 8 8 9 9 8 8 9 8 8 8 9 9 10 11 12 12 12 12 12 12 12 11 11 11 11 10 10 10 10 10 10 10 10 10 10 10 10 10 9 9 9 9 9 9 9 9 9
7 7 7 8 8 8 8 8 8 7 7 8 9 9 10 11 11 11 12 12 12 12 12 11 11 11 11 10 10 10 10 10 10 9 9 9 9 9 9 9 9 9 9 9 8 8 8 8 8
7 7 7 7 7 8 8 8 8 8 8 8 9 9 10 10 11 11 11 12 11 11 11 11 11 11 10 10 10 10 9 9 9 9 9 9 9 9 9 9 8 8 8 8 8 8 8 8 7
6 7 7 7 7 6 7 7 7 7 7 7 7 8 9 9 10 11 11 11 11 11 11 11 11 11 10 10 10 10 10 9 9 9 9 9 8 8 8 8 8 8 8 8 7 7 7 7 7
6 7 7 7 6 5 6 6 6 6 7 7 6 7 8 9 10 10 11 11 11 11 11 11 10 10 10 10 10 9 9 9 9 9 8 8 8 8 8 8 8 7 7 7 7 7 7 7 6
6 6 5 5 5 6 5 6 6 5 6 7 6 7 8 8 9 9 10 10 10 10 10 10 10 10 10 10 9 9 9 9 9 8 8 8 8 7 7 7 7 7 7 7 7 6 6 6 6
6 5 5 5 5 5 5 5 6 6 5 6 6 6 7 8 8 8 9 9 10 10 10 10 10 9 9 9 9 9 9 9 8 8 8 8 7 7 7 7 7 7 7 6 6 6 6 6 6
5 5 5 5 5 5 4 5 5 6 5 6 6 6 7 7 7 8 8 9 9 9 10 10 9 9 9 9 9 9 8 8 8 8 8 7 7 7 7 7 7 6 6 6 6 6 6 5 5
5 5 4 4 3 4 4 4 5 5 5 5 5 5 6 6 7 7 8 8 8 9 9 9 9 9 9 9 8 8 8 8 8 8 7 7 7 7 7 7 6 6 6 6 5 5 5 5 5
5 4 3 3 4 5 5 5 5 5 5 5 4 4 5 6 6 7 7 7 8 8 9 9 9 9 8 8 8 8 8 8 8 7 7 7 7 7 6 6 6 6 5 5 5 5 5 5 4
4 4 3 3 3 4 5 5 5 5 4 4 4 4 5 5 6 6 6 7 7 7 8 8 8 8 8 8 8 7 7 7 7 7 7 7 6 6 6 6 6 5 5 5 5 5 4 4 4
4 3 2 3 2 2 3 5 5 4 4 3 3 4 4 5 5 5 6 6 6 7 7 7 7 7 7 7 7 7 7 7 7 7 7 6 6 6 6 5 5 5 5 5 4 4 4 4 4
Wind_Speed
1 4 3 4 4 2 5 6 4 3 4 3 3 4 7 7 6 4 1 3 7 7 7 10 12 13 12 12 12 11 11 11 12 11 11 11 10 10 9 8 8 7 7 7 7 7 6 6 6
3 3 4 4 4 4 7 6 6 6 5 4 3 3 3 2 1 2 2 3 7 7 8 10 13 13 12 12 12 11 11 11 11 11 11 10 10 9 9 8 8 7 7 6 6 6 6 6 6
3 3 4 4 5 8 7 5 7 3 3 3 2 1 3 3 3 4 3 7 7 7 8 11 13 13 13 12 12 11 11 11 10 10 10 10 10 9 9 8 8 8 7 7 6 6 6 6 6
3 3 4 2 8 7 5 3 3 2 1 2 4 2 1 1 3 3 5 8 8 6 8 10 13 13 12 12 12 11 11 10 10 10 10 10 10 10 9 9 8 8 8 8 7 7 6 6 6
3 3 3 4 8 5 5 3 2 2 3 2 4 3 1 3 2 6 8 8 9 6 7 9 12 12 12 12 11 11 10 10 10 10 10 9 9 9 9 9 8 8 8 8 7 7 6 6 6
3 3 4 7 8 5 4 4 3 2 3 3 5 4 2 1 5 7 8 7 7 6 6 8 11 11 11 11 10 10 10 9 9 9 9 9 9 9 8 8 8 8 7 7 7 7 6 6 6
4 4 6 6 5 5 5 4 5 5 4 6 6 5 2 2 4 7 8 7 6 6 6 6 8 10 10 10 10 10 10 9 9 9 9 9 9 8 8 8 8 7 7 7 7 6 6 6 6
4 4 5 5 6 6 3 3 3 6 5 3 7 8 6 6 7 8 8 7 6 5 5 6 7 9 9 9 10 10 10 9 9 9 9 9 9 8 8 8 8 7 7 7 6 6 6 6 6
4 3 7 8 8 5 2 2 0 1 4 2 2 3 3 9 10 10 7 5 5 5 4 5 6 7 8 8 9 10 10 9 10 9 10 9 9 8 8 8 8 7 7 7 7 7 7 7 7
4 7 10 6 5 3 1 2 2 2 1 1 0 1 6 10 12 12 10 10 8 7 4 4 5 6 7 7 8 8 8 9 9 9 9 9 8 8 7 7 8 7 7 7 8 8 7 7 6
6 8 5 4 3 2 2 2 2 4 4 6 6 7 10 10 11 11 11 10 9 7 5 4 5 5 6 5 6 6 7 7 8 8 8 8 8 7 7 7 7 7 7 7 7 8 7 6 5
5 6 4 3 1 1 2 2 2 5 6 5 6 11 12 14 14 13 12 10 7 7 6 5 5 5 6 6 5 5 5 5 5 6 7 7 5 5 5 5 5 6 6 6 6 5 6 6 6
6 5 4 4 3 3 2 3 3 5 4 1 5 10 12 12 11 8 7 8 7 7 6 5 5 6 6 6 4 4 4 4 5 6 6 6 4 3 3 4 5 5 5 5 4 4 4 4 5
5 3 3 4 3 3 3 4 3 6 2 4 7 9 10 11 10 8 8 8 8 8 7 6 6 6 6 5 4 4 4 5 6 5 5 6 5 4 3 3 3 4 5 4 4 3 3 3 3
3 1 4 4 4 3 1 5 7 6 4 5 6 7 8 8 8 10 10 9 9 8 8 7 7 6 6 6 5 4 5 5 5 4 5 6 6 5 4 3 3 3 4 5 4 4 3 3 3
3 3 4 4 4 4 5 9 7 3 7 6 6 6 6 7 8 8 8 8 8 8 8 8 7 7 6 6 5 5 5 5 4 5 5 5 5 5 5 3 2 3 4 4 2 3 3 3 3
3 5 6 4 3 3 6 8 5 3 6 6 6 6 6 6 7 7 8 9 9 9 9 8 7 7 6 6 5 5 5 4 4 4 4 4 5 5 5 3 2 4 4 3 2 2 2 2 4
7 5 6 7 3 3 5 7 6 3 4 6 6 6 7 8 9 8 8 8 8 8 8 8 7 7 6 5 4 4 3 3 3 3 3 4 4 4 4 3 3 3 2 2 2 2 2 2 3
4 5 5 5 3 3 6 8 8 5 4 5 6 6 7 8 6 5 6 7 7 7 8 8 8 8 7 4 4 3 2 2 1 1 2 3 3 3 3 2 2 2 2 2 2 2 2 3 3
4 4 3 1 1 2 5 8 7 6 6 7 8 8 8 6 4 4 6 7 9 10 9 9 9 9 8 6 4 3 3 2 1 1 2 2 3 3 3 2 1 1 1 2 2 2 1 2 3
5 6 5 3 2 2 1 5 5 5 4 4 5 6 6 7 7 6 7 8 9 10 11 11 10 9 8 6 5 4 3 2 1 1 1 0 1 2 2 2 2 1 1 0 1 1 1 1 2
5 5 5 3 2 2 1 4 6 4 4 4 5 4 5 5 5 5 7 8 10 10 10 10 10 9 8 8 7 7 5 4 3 2 1 1 1 1 2 2 2 1 1 0 1 0 0 0 1
4 2 3 3 3 1 2 3 7 2 4 6 5 4 4 4 5 6 7 8 8 8 8 8 9 8 8 8 9 8 5 3 2 2 2 1 0 0 1 1 1 1 1 1 0 0 0 0 1
4 4 3 3 3 4 6 6 6 3 5 4 4 4 3 3 3 3 3 4 4 5 7 8 9 8 8 8 8 8 7 5 5 3 3 2 1 0 0 1 1 1 1 1 1 1 1 1 1
4 5 2 0 2 6 3 5 6 4 3 4 4 4 3 3 2 2 2 3 4 6 8 8 9 8 8 8 8 8 8 7 7 5 4 3 2 1 2 1 1 1 1 1 1 1 1 2 2
5 6 5 5 5 3 2 6 5 3 2 2 2 1 1 0 1 2 3 3 4 5 7 8 9 8 8 8 7 6 6 5 5 5 4 4 3 3 3 2 1 1 1 1 1 1 2 2 3
4 3 3 3 2 1 4 5 6 3 4 4 4 3 2 1 1 2 1 2 3 4 6 7 8 8 8 7 7 6 6 6 5 5 4 3 3 2 2 2 2 1 1 1 1 2 2 2 3
3 5 4 3 4 4 4 4 3 4 4 4 3 3 3 2 1 0 1 1 1 2 4 5 6 8 7 7 7 6 6 6 5 4 4 4 3 2 2 2 1 1 1 1 1 2 2 3 3
3 3 3 3 3 4 3 4 2 3 2 2 3 2 2 1 1 1 1 1 2 2 3 4 4 5 5 6 5 5 5 4 4 4 4 4 3 3 3 2 2 2 2 2 2 3 3 3 4
3 4 5 4 3 3 3 4 3 1 1 1 2 2 2 2 2 2 2 3 3 3 2 2 3 4 5 5 5 4 4 4 4 4 3 3 3 3 2 2 2 2 2 2 3 3 3 4 4
Wind_Direction
94 90 80 66 69 76 231 234 211 210 212 207 161 152 162 165 167 188 132 140 132 133 137 137 132 129 126 122 118 114 110 106 103 102 102 102 101 100 101 102 101 97 94 93 93 89 84 81 79
122 100 66 74 124 200 247 230 212 212 186 133 97 108 123 191 210 129 147 151 128 127 127 132 131 129 126 124 120 116 113 108 105 102 101 100 100 99 97 96 92 89 87 87 87 85 82 78 75
127 73 101 110 172 199 222 214 211 222 195 166 117 94 153 183 169 171 175 141 118 116 121 131 131 129 127 124 120 116 113 110 106 103 100 98 94 92 90 86 81 80 79 78 81 81 79 75 72
111 69 71 142 220 223 222 213 178 157 145 141 141 129 210 300 186 172 136 129 121 116 118 130 132 130 127 125 121 116 113 109 106 103 99 95 90 84 81 79 76 76 74 73 72 71 70 70 68
74 105 139 223 236 242 242 241 202 168 168 146 140 151 263 344 101 126 129 131 131 124 115 127 133 132 129 126 122 118 113 111 108 103 99 95 90 85 81 77 73 71 71 69 66 64 61 61 60
92 106 168 222 235 249 249 215 190 199 179 163 149 147 228 10 130 135 131 129 128 126 114 125 134 132 130 128 124 120 116 112 108 104 100 95 91 87 83 78 72 69 67 64 60 56 54 53 52
142 151 197 209 227 244 236 184 182 190 200 201 165 146 221 197 161 130 119 116 111 110 105 100 115 122 126 127 123 119 115 111 107 103 97 93 90 86 80 76 71 66 63 57 52 51 48 44 43
151 148 197 210 209 235 222 181 188 180 203 169 153 162 199 190 143 117 109 107 105 101 102 99 100 104 106 113 118 116 113 108 103 97 92 89 84 79 75 70 68 63 58 53 46 45 43 39 40
126 164 214 210 199 223 211 184 347 101 129 138 196 202 193 136 132 126 120 120 126 125 113 109 104 101 105 106 109 106 104 101 95 90 87 81 73 70 66 66 65 59 54 50 46 45 42 40 38
157 207 225 215 197 204 226 195 183 104 117 166 44 35 123 138 148 153 159 162 164 164 154 133 123 115 107 100 94 89 88 88 86 85 84 80 75 70 67 65 61 55 52 50 46 44 39 37 31
182 212 230 241 233 224 245 246 200 152 225 211 199 175 152 155 162 169 173 172 173 167 159 149 135 123 113 103 96 88 86 84 83 85 88 86 75 67 61 56 48 45 45 43 37 36 32 31 25
197 235 229 242 252 242 228 231 231 211 232 221 187 164 163 169 176 180 178 175 166 162 167 155 141 131 120 112 104 99 92 86 83 85 90 89 75 62 55 52 44 42 41 39 34 31 24 23 18
217 238 240 256 269 260 251 243 233 249 264 163 141 155 170 178 183 181 173 168 164 170 171 164 150 144 132 118 113 102 98 97 96 91 88 94 90 79 64 55 48 41 41 40 33 28 23 16 9
204 223 251 268 260 261 239 267 239 252 199 153 163 176 183 184 182 175 175 177 178 178 174 163 155 148 135 130 124 117 110 107 101 95 94 96 96 90 76 59 49 40 38 38 37 27 20 5 359
158 206 289 260 225 229 176 276 237 232 169 175 186 188 189 196 186 189 190 186 183 177 169 165 160 147 142 136 130 121 119 114 104 100 100 97 97 94 85 69 50 35 36 38 37 28 27 12 1
135 176 239 256 198 199 170 250 256 191 170 195 203 200 198 205 200 199 194 188 179 169 167 168 163 152 147 139 130 122 118 114 109 108 104 99 97 98 88 75 49 35 40 39 34 18 16 6 355
162 198 220 251 206 177 189 244 262 189 178 203 212 211 208 213 214 206 196 189 180 174 168 165 159 155 149 134 121 115 110 108 111 111 107 105 100 98 93 81 57 49 47 34 18 23 18 356 346
195 194 204 216 220 180 214 247 268 238 204 218 223 222 216 218 223 210 196 188 176 169 164 162 154 149 138 123 109 101 99 98 99 108 114 113 106 102 95 83 61 56 53 24 18 11 8 350 331
173 180 215 231 221 191 226 252 264 251 226 233 235 228 226 230 233 206 189 176 164 162 163 165 158 155 149 144 144 141 149 147 136 119 123 121 116 112 104 89 66 59 56 28 12 5 7 1 347
170 189 207 268 282 208 242 262 266 241 226 225 225 226 227 227 223 204 185 176 176 175 173 170 168 167 168 166 156 143 137 143 154 140 116 124 123 123 119 110 114 90 70 37 23 21 8 0 9
207 195 194 206 347 348 295 287 260 254 234 238 235 231 227 218 214 206 193 188 182 182 180 180 178 173 169 154 132 110 90 81 96 123 162 151 137 126 120 122 117 119 115 77 4 35 53 343 350
220 208 189 188 158 269 173 260 270 260 266 255 253 247 241 234 218 205 197 191 193 193 183 177 175 172 167 157 157 156 164 174 191 175 176 172 143 138 130 134 133 140 140 148 288 23 177 160 319
189 167 182 190 171 245 210 213 278 293 261 263 262 258 254 239 217 209 202 199 198 189 178 174 169 170 167 166 167 165 167 167 149 143 148 155 159 155 149 149 140 151 170 203 260 329 287 200 246
139 79 55 71 115 236 215 190 270 244 237 262 261 263 255 245 230 221 203 178 182 176 171 167 168 173 171 170 171 173 171 163 156 165 171 183 209 233 195 152 144 168 187 214 231 234 245 251 248
128 118 97 55 216 241 189 194 247 259 248 243 250 251 246 228 203 192 178 180 182 178 174 171 170 175 174 172 176 180 177 172 176 180 182 184 198 235 236 210 194 208 229 236 228 231 254 248 252
193 159 170 190 206 253 195 222 250 280 298 298 295 280 296 293 224 206 201 191 187 181 175 172 173 175 175 176 180 179 175 176 183 183 185 193 203 217 216 211 211 230 237 250 244 246 255 258 257
157 186 152 129 133 199 244 276 300 333 349 354 0 14 339 282 255 220 195 174 171 170 175 175 172 172 176 178 175 177 178 180 184 181 182 195 206 211 200 208 217 236 238 239 246 257 260 262 260
146 145 116 138 168 222 255 251 257 303 313 337 352 343 321 318 323 37 144 149 150 157 164 162 170 175 175 174 177 182 184 185 179 173 184 195 202 199 192 196 208 236 261 268 260 270 266 263 270
125 139 139 147 172 175 227 259 234 248 268 289 298 307 313 322 355 36 54 64 79 84 127 147 154 160 165 171 173 172 180 176 169 178 191 195 194 189 188 201 210 232 255 262 263 269 271 270 276
163 163 148 165 217 197 196 262 338 297 300 313 314 333 2 23 35 46 63 61 62 67 84 137 152 160 170 169 164 166 162 159 167 182 191 188 193 193 195 199 209 235 256 261 255 268 270 266 274
Height
1481 1483 1486 1489 1494 1502 1500 1492 1488 1486 1485 1482 1483 1484 1485 1488 1492 1495 1489 1488 1491 1494 1497 1500 1503 1505 1507 1509 1511 1512 1514 1515 1516 1517 1519 1519 1520 1521 1522 1523 1523 1524 1525 1525 1526 1526 1526 1527 1527
1481 1484 1487 1489 1496 1504 1497 1487 1485 1482 1480 1481 1481 1482 1483 1484 1485 1486 1486 1488 1491 1494 1497 1500 1503 1505 1507 1509 1511 1512 1514 1515 1516 1517 1518 1519 1520 1521 1522 1522 1523 1524 1524 1525 1525 1526 1526 1526 1527
1481 1483 1486 1489 1494 1495 1487 1480 1480 1478 1479 1480 1481 1482 1483 1483 1483 1484 1486 1488 1491 1494 1497 1500 1502 1505 1507 1509 1510 1512 1514 1515 1516 1517 1518 1519 1520 1520 1521 1522 1523 1523 1524 1524 1525 1525 1525 1526 1526
1480 1484 1486 1490 1489 1485 1480 1476 1476 1477 1478 1479 1480 1482 1482 1483 1483 1484 1486 1489 1491 1494 1497 1500 1502 1504 1506 1508 1510 1512 1513 1514 1516 1517 1517 1518 1519 1520 1520 1521 1522 1522 1523 1523 1524 1524 1524 1525 1525
1479 1481 1487 1489 1484 1480 1476 1475 1475 1476 1477 1478 1479 1480 1481 1482 1483 1484 1486 1489 1492 1494 1497 1500 1502 1504 1506 1508 1510 1511 1513 1514 1515 1516 1517 1517 1518 1519 1519 1520 1521 1521 1522 1522 1523 1523 1523 1523 1524
1478 1479 1487 1486 1481 1476 1474 1473 1474 1475 1476 1478 1478 1479 1480 1482 1483 1485 1487 1490 1492 1495 1497 1499 1502 1504 1506 1508 1509 1511 1512 1513 1514 1515 1516 1517 1517 1518 1518 1519 1519 1520 1520 1521 1521 1521 1522 1522 1522
1476 1479 1481 1480 1478 1475 1471 1471 1472 1473 1474 1476 1476 1478 1479 1481 1483 1485 1488 1490 1492 1495 1497 1499 1501 1503 1505 1507 1509 1510 1511 1512 1513 1514 1515 1516 1516 1517 1517 1518 1518 1519 1519 1519 1520 1520 1520 1520 1521
1473 1477 1478 1478 1476 1472 1469 1469 1469 1471 1472 1474 1475 1476 1477 1479 1481 1484 1487 1490 1492 1494 1496 1498 1500 1502 1504 1506 1508 1509 1510 1512 1513 1513 1514 1515 1515 1516 1516 1517 1517 1518 1518 1518 1518 1518 1518 1519 1519
1471 1477 1476 1473 1472 1469 1467 1468 1468 1469 1470 1472 1473 1474 1475 1477 1480 1483 1486 1488 1491 1493 1495 1498 1500 1502 1504 1505 1507 1508 1509 1511 1512 1512 1513 1514 1514 1515 1515 1516 1516 1516 1516 1516 1517 1517 1517 1517 1517
1469 1472 1468 1465 1465 1465 1465 1466 1467 1468 1469 1470 1471 1472 1474 1476 1478 1481 1483 1485 1488 1491 1494 1496 1498 1501 1502 1504 1506 1507 1508 1509 1510 1511 1512 1512 1513 1514 1514 1514 1515 1515 1515 1515 1515 1515 1515 1515 1515
1464 1465 1463 1462 1462 1463 1464 1465 1466 1467 1468 1467 1468 1469 1472 1474 1477 1479 1481 1484 1487 1490 1492 1495 1497 1499 1501 1503 1504 1506 1507 1508 1509 1510 1511 1511 1512 1512 1513 1513 1513 1513 1513 1513 1513 1513 1513 1513 1513
1463 1461 1461 1461 1461 1462 1463 1464 1464 1464 1464 1465 1466 1467 1470 1472 1475 1477 1479 1483 1486 1488 1491 1493 1496 1498 1500 1502 1503 1504 1506 1507 1508 1509 1509 1510 1510 1511 1511 1512 1512 1512 1512 1512 1512 1512 1512 1512 1512
1460 1460 1460 1460 1461 1461 1462 1462 1462 1462 1462 1463 1465 1466 1468 1470 1473 1476 1479 1482 1484 1487 1489 1492 1494 1496 1498 1500 1502 1503 1504 1505 1506 1507 1508 1509 1509 1510 1510 1510 1510 1510 1510 1510 1510 1510 1510 1510 1509
1457 1458 1459 1459 1459 1460 1461 1460 1461 1458 1460 1461 1462 1464 1466 1469 1471 1474 1477 1479 1482 1485 1488 1490 1492 1495 1497 1499 1500 1502 1503 1504 1505 1506 1507 1507 1508 1508 1509 1509 1509 1509 1509 1508 1508 1508 1508 1507 1507
1456 1459 1459 1458 1458 1459 1460 1460 1458 1456 1459 1459 1461 1462 1465 1467 1470 1471 1474 1477 1480 1483 1486 1488 1491 1493 1495 1497 1499 1500 1502 1503 1504 1505 1505 1506 1507 1507 1507 1507 1507 1507 1507 1507 1506 1506 1506 1505 1505
1456 1460 1462 1457 1456 1457 1462 1461 1455 1455 1456 1457 1459 1461 1462 1465 1467 1470 1473 1475 1478 1481 1483 1486 1489 1491 1494 1496 1497 1499 1500 1501 1502 1503 1504 1505 1505 1506 1506 1506 1506 1506 1505 1505 1505 1504 1504 1503 1503
1458 1462 1461 1458 1455 1456 1459 1458 1453 1453 1454 1455 1456 1458 1460 1462 1465 1467 1470 1473 1476 1478 1481 1484 1486 1489 1491 1494 1496 1497 1499 1500 1501 1502 1503 1503 1504 1504 1504 1504 1504 1504 1504 1503 1503 1502 1502 1501 1500
1457 1459 1458 1458 1455 1456 1458 1456 1452 1452 1453 1453 1454 1455 1457 1458 1461 1464 1467 1470 1473 1476 1479 1481 1484 1487 1489 1491 1493 1495 1497 1498 1499 1500 1501 1502 1502 1503 1503 1503 1503 1503 1502 1502 1501 1501 1500 1499 1498
1452 1455 1456 1455 1453 1455 1456 1455 1452 1451 1452 1452 1451 1452 1453 1455 1458 1461 1464 1467 1470 1473 1475 1478 1481 1484 1486 1488 1490 1492 1494 1496 1497 1498 1499 1500 1501 1501 1501 1501 1501 1501 1501 1500 1499 1499 1498 1497 1496
1452 1455 1456 1455 1453 1454 1456 1454 1450 1448 1448 1448 1448 1449 1450 1452 1454 1457 1460 1463 1466 1469 1472 1475 1478 1480 1483 1486 1488 1491 1492 1494 1495 1496 1497 1498 1498 1499 1500 1500 1500 1499 1499 1498 1498 1497 1496 1495 1494
1451 1454 1456 1456 1455 1455 1455 1453 1449 1446 1445 1445 1445 1446 1447 1448 1449 1452 1455 1458 1461 1465 1468 1471 1474 1477 1480 1483 1486 1488 1490 1491 1493 1494 1495 1496 1496 1497 1497 1498 1498 1498 1497 1497 1496 1495 1494 1493 1493
1452 1449 1451 1454 1459 1463 1459 1461 1449 1446 1444 1443 1442 1443 1443 1445 1446 1448 1451 1454 1457 1461 1464 1468 1471 1474 1477 1480 1482 1484 1486 1487 1489 1491 1492 1494 1494 1495 1495 1496 1496 1496 1495 1495 1494 1494 1493 1492 1491
1448 1448 1450 1453 1459 1464 1461 1463 1451 1446 1444 1441 1440 1440 1440 1442 1443 1445 1447 1450 1454 1457 1461 1464 1468 1471 1474 1477 1479 1482 1484 1485 1487 1489 1490 1491 1492 1493 1493 1494 1494 1494 1493 1493 1492 1492 1491 1490 1489
1447 1450 1453 1457 1460 1463 1459 1461 1452 1448 1441 1439 1438 1438 1438 1439 1440 1442 1444 1447 1450 1454 1457 1461 1464 1467 1470 1473 1476 1478 1480 1482 1484 1486 1487 1488 1489 1490 1491 1491 1491 1491 1491 1491 1490 1489 1488 1488 1487
1446 1453 1461 1462 1465 1460 1456 1456 1448 1441 1438 1437 1436 1435 1436 1437 1438 1439 1441 1443 1446 1449 1453 1457 1460 1464 1467 1470 1472 1475 1477 1479 1481 1483 1484 1485 1486 1487 1488 1488 1488 1488 1488 1488 1487 1487 1486 1485 1484
1446 1449 1457 1460 1463 1461 1458 1455 1445 1438 1436 1434 1434 1434 1434 1435 1436 1437 1439 1441 1443 1445 1449 1453 1456 1460 1463 1466 1469 1472 1474 1476 1478 1480 1482 1483 1484 1484 1485 1486 1486 1486 1486 1485 1484 1483 1483 1482 1481
1447 1449 1452 1460 1465 1463 1457 1452 1442 1436 1434 1433 1433 1432 1433 1433 1435 1436 1437 1438 1440 1442 1446 1449 1453 1456 1459 1463 1466 1468 1471 1473 1475 1477 1479 1480 1481 1482 1482 1483 1483 1483 1482 1482 1481 1480 1479 1478 1477
1443 1447 1455 1460 1459 1455 1450 1450 1446 1437 1435 1434 1433 1433 1432 1433 1433 1434 1435 1437 1438 1441 1444 1447 1450 1453 1456 1460 1463 1465 1468 1470 1472 1474 1475 1477 1478 1478 1479 1479 1479 1479 1479 1478 1478 1477 1476 1475 1473
1446 1449 1450 1457 1458 1455 1454 1447 1438 1436 1435 1434 1434 1433 1433 1432 1433 1433 1435 1436 1438 1440 1442 1445 1448 1451 1454 1457 1460 1462 1465 1467 1469 1471 1472 1473 1474 1475 1475 1476 1476 1476 1475 1475 1474 1473 1472 1471 1470
1443 1446 1451 1454 1459 1458 1455 1449 1436 1435 1434 1434 1433 1433 1433 1433 1433 1434 1435 1436 1437 1439 1441 1443 1446 1448 1451 1454 1457 1459 1462 1464 1466 1468 1469 1470 1471 1472 1472 1472 1472 1472 1472 1471 1470 1469 1468 1467 1465